Regional Weather Roundup
Issued by NWS San Angelo, TX

Home | Current Version | Previous Version | Text Only | Print | Product List | Glossary On
Versions: 1 2 3 4 5 6 7 8 9 10 11 12 13 14 15 16 17 18 19 20 21 22 23 24 25 26 27 28 29 30 31 32 33 34 35 36 37 38 39 40 41 42 43 44 45 46 47 48 49 50
000
ASUS44 KSJT 300310
RWRSJT
WEST CENTRAL TEXAS REGIONAL WEATHER ROUNDUP
NATIONAL WEATHER SERVICE SAN ANGELO TX
900 PM CST THU JAN 29 2015

NOTE: "FAIR" INDICATES FEW OR NO CLOUDS BELOW 12,000 FEET WITH NO
SIGNIFICANT WEATHER AND/OR OBSTRUCTIONS TO VISIBILITY.

TXZ049-054-064>066-071>073-076>078-098-099-113-114-127-128-139-140-
154-155-168>170-300400
...LOCATIONS ACROSS WEST CENTRAL TEXAS...

CITY           SKY/WX    TMP DP  RH WIND       PRES   REMARKS
SAN ANGELO     CLOUDY    54  34  46 NE17G24   30.43R
ABILENE        CLOUDY    50  30  46 N9        30.48R
DYESS AFB      CLOUDY    50  32  50 NE12      30.48R
JUNCTION       MOCLDY    58  37  45 NE13      30.38R
SWEETWATER     CLOUDY    49  29  46 NE15      30.49F
BROWNWOOD      CLOUDY    52  32  46 N13G18    30.46R
COLEMAN        CLOUDY    51  34  51 N15G21    30.46R
SONORA         MOCLDY    57  36  44 NE17      30.42S
OZONA          FAIR      54  36  50 NE18G25   30.41S
BRADY          LGT RAIN  52  37  58 N16       30.41R
$$

TEXAS PANHANDLE/OKLAHOMA PANHANDLE

CITY           SKY/WX    TMP DP  RH WIND       PRES   REMARKS
AMARILLO       CLOUDY    39  29  67 E3        30.51R
BORGER         CLOUDY    45  26  47 NE3       30.50R
CANADIAN       CLOUDY    42  28  57 CALM      30.50R
DALHART        CLOUDY    42  30  62 SE6       30.49S WCI  38
DUMAS          CLOUDY    40  28  61 E5        30.50R WCI  36
GUYMON         NOT AVBL
HEREFORD       CLOUDY    42  32  69 NE3       30.50S
PAMPA          CLOUDY    40  28  60 CALM      30.50S
PERRYTON         N/A     38  25  60 NE6       30.50R WCI  33
$$

SOUTHERN PANHANDLE/SOUTH PLAINS/ROLLING PLAINS

CITY           SKY/WX    TMP DP  RH WIND       PRES   REMARKS
LUBBOCK        CLOUDY    44  26  49 NE5       30.48R
SNYDER         CLOUDY   N/A N/A N/A NE13      30.47R
CHILDRESS      CLOUDY    48  28  46 N5        30.51R
SEMINOLE       CLOUDY    48  26  42 E9        30.49R
$$

PERMIAN BASIN

CITY           SKY/WX    TMP DP  RH WIND       PRES   REMARKS
MIDLAND        CLOUDY    52  27  38 NE16      30.44S
ODESSA         CLOUDY    50  28  42 NE10      30.45S
WINK           CLOUDY    53  28  38 NE12      30.44R
$$

FAR WEST/SOUTHWEST MOUNTAINS/TRANS PECOS

CITY           SKY/WX    TMP DP  RH WIND       PRES   REMARKS
ALPINE         CLOUDY    50  36  57 NE16G22   30.48R
DRYDEN           N/A     61  37  41 NE15      30.35R
EL PASO        CLOUDY    52  34  50 E18G24    30.35R
FORT STOCKTON  CLOUDY    54  34  46 NE14      30.42R
GUADALUPE PASS LGT RAIN  38  35  89 NE37      30.40S WCI  25
MARFA          CLOUDY    45  39  81 NE20      30.41R WCI  37
PECOS          CLOUDY    55  35  47 NE10      30.44R
$$

DALLAS/FORT WORTH METROPLEX

CITY           SKY/WX    TMP DP  RH WIND       PRES   REMARKS
DFW AIRPORT    CLOUDY    52  31  44 N14       30.45R
FTW MEACHAM    CLOUDY    52  33  48 N14       30.44R
DAL-EXECUTIVE  CLOUDY    55  31  39 N10       30.43R
GRAND PRAIRIE  CLOUDY    54  34  47 N16G26    30.45R
ADDISON        NOT AVBL
MESQUITE       CLOUDY    51  33  50 N13       30.44R
LANCASTER      CLOUDY    53  30  41 N14G22    30.44R
$$

NORTH CENTRAL TEXAS

CITY           SKY/WX    TMP DP  RH WIND       PRES   REMARKS
SHRMAN/DENISON CLOUDY    49  35  59 N10G20    30.47R
GAINESVILLE    CLOUDY    47  31  53 N8        30.48R
BRIDGEPORT     CLOUDY    48  35  59 N5        30.48R
DENTON         CLOUDY    50  31  48 NE12      30.46R
WAXAHACHIE     MOCLDY    53  34  48 N12G21    30.43R
GRANBURY       PTCLDY    52  33  48 NW6       30.47R
$$

WESTERN NORTH TEXAS

CITY           SKY/WX    TMP DP  RH WIND       PRES   REMARKS
WICHITA FALLS  MOCLDY    44  32  62 N7        30.49R
VERNON         CLOUDY    47  25  43 N5        30.52R
BRECKENRIDGE   MOCLDY    51  30  44 N9        30.48R
COMANCHE       CLOUDY    51  34  53 N12       30.46R
$$

CENTRAL AND SOUTH CENTRAL TEXAS

CITY           SKY/WX    TMP DP  RH WIND       PRES   REMARKS
AUSTIN/BERGSTM MOCLDY    63  42  46 N16       30.34R
WACO           CLOUDY    56  37  49 N10       30.40R
HILLSBORO      PTCLDY    53  34  47 N10       30.42R
TEMPLE         MOCLDY    57  36  44 N13       30.38R
KILLEEN-GRAY   CLOUDY    58  35  41 N16G23    30.39R
FORT HOOD      CLOUDY    58  34  40 N15G24    30.38R
GEORGETOWN     MOCLDY    63  37  39 N15G26    30.36R
LAGO VISTA     FAIR      61  37  40 NE13G30   30.36R
SAN MARCOS     CLOUDY    63  43  48 NE14      30.34R
NEW BRAUNFELS  MOCLDY    61  46  57 NE6       30.32R
RANDOLPH AFB   CLOUDY    65  48  54 NE7       30.33R
SAN ANTONIO    MOCLDY    67  44  43 NE10      30.33R
STINSON        CLOUDY    66  56  70 NE7       30.30R
PLEASANTON     NOT AVBL
LA GRANGE      MOCLDY    63  53  69 N3        30.30R
GIDDINGS       CLOUDY    64  43  46 N6        30.36R
$$

EAST TEXAS

CITY           SKY/WX    TMP DP  RH WIND       PRES   REMARKS
PARIS          CLOUDY    46  30  53 N9        30.45R
CLARKSVILLE    NOT AVBL
TYLER          CLOUDY    53  32  44 N14G29    30.39R
LONGVIEW       CLOUDY    55  35  47 N17G24    30.36R
PALESTINE      MOCLDY    57  38  48 N14G22    30.38R
NACOGDOCHES    CLOUDY    61  37  41 N13       30.33R
$$

TEXAS HILL COUNTRY AND EDWARDS PLATEAU

CITY           SKY/WX    TMP DP  RH WIND       PRES   REMARKS
LLANO          CLOUDY    59  37  44 NE10G16   30.42R
HORSESHOE BAY  FAIR      61  38  42 N5        30.37R
KERRVILLE      CLEAR     59  38  46 NE6       30.37R
FREDERICKSBRG  PTCLDY    55  39  53 NE6       30.37R
ROCKSPRINGS    NOT AVBL
HONDO          PTCLDY    61  50  67 NE9       30.33R
UVALDE         MOCLDY    60  54  82 NE7       30.31R
DEL RIO        MOCLDY    66  52  60 NE5       30.30R
$$

SOUTHEAST TEXAS

CITY           SKY/WX    TMP DP  RH WIND       PRES   REMARKS
COLLEGE STN    MOCLDY    64  40  41 N16G23    30.32R
CALDWELL       CLOUDY    63  39  42 N10       30.37R
CROCKETT       MOCLDY    63  43  48 N9        30.36R
BRENHAM        MOCLDY    64  49  56 N9        30.32R
HUNTSVILLE     MOCLDY    63  42  46 VRB6      30.31R
CONROE         MOCLDY    57  53  86 NW6       30.30R
HOUSTON BUSH   PTCLDY    63  55  75 CALM      30.27R
HOUSTON HOBBY  MOCLDY    64  56  75 S3        30.27R
PERLAND        FAIR      62  58  86 S3        30.28R
WHARTON        MOCLDY    62  59  91 SW5       30.30R
$$

THE UPPER TEXAS COAST

CITY           SKY/WX    TMP DP  RH WIND       PRES   REMARKS
ORANGE         PTCLDY    64  60  88 SW3       30.28R
PORT ARTHUR    PTCLDY    59  58  96 W5        30.26R
GALVESTON      CLEAR     62  60  93 S3        30.28R
ANGLETON       MOCLDY    57  57 100 S3        30.28R
BAY CITY       FOG       60  60 100 CALM      30.28R VSB 3/4
$$

TEXAS COASTAL BEND, RIO GRANDE PLAINS DEEP SOUTH TEXAS

CITY           SKY/WX    TMP DP  RH WIND       PRES   REMARKS
VICTORIA       PTCLDY    60  59  96 N7        30.30R
BEEVILLE       FAIR      62  57  84 CALM      30.28R
ROCKPORT       CLEAR     60  58  92 SE5       30.28R
PORT ARANSAS   CLEAR     62  60  94 E6        30.27R
PORT LAVACA    MOCLDY    60  60  98 CALM      30.28S
CORPUS CHRISTI MOCLDY    62  60  93 E7        30.27R
KINGSVILLE NAS MOCLDY    62  61  96 E8        30.27R
COTULLA        CLEAR     66  56  70 NE8       30.27R
LAREDO         PTCLDY    67  55  65 E8        30.26R
BROWNSVILLE    PTCLDY    63  60  90 NE7       30.25R
PORT ISABEL    PTCLDY    64  62  93 E5        30.25R
HEBBRONVILLE   HVY RAIN  64  59  84 E7        30.27R
MCALLEN        PTCLDY    65  59  81 E8        30.25R
WESLACO        PTCLDY    65  59  81 E6        30.25R
FALFURRIAS     PTCLDY    62  59  88 E5        30.26R
EDINBURG       PTCLDY    67  61  80 SE12      30.24S
$$



USA.gov is the U.S. government's official web portal to all federal, state and local government web resources and services.